Volver al catálogo

COSMOS 1275 DEB

ActivoPO
NORAD 42199·DEBRIS·🇷🇺 Russia

Lanzado Jun 4, 1981 desde Plesetsk Cosmodrome

Loading…

Próximos Pases (próximas 24 horas)

TLE

ActualizadoSource: Space-Track

Época: Sep 14, 2026, 13:54 UTC

1 42199U 81053TP  26257.57947157  .00000505  00000-0  37357-3 0  9997
2 42199  82.9521 349.3431 0037782 269.9267  89.7570 13.93246075650028

Sigue COSMOS 1275 DEB en tiempo real con AllMySat

Download on the App Store